This is the latest recevied weather packets stored in our database for station/object WW5JC. If no packets are shown the sender has not sent any weather packets the latest 10 day(s).
| Time | Temp. | Humidity | Pressure | Rain* | Wind** | Luminosity | Snow |
|---|---|---|---|---|---|---|---|
| 1788271161 | 28.89° C | 70% | 1020 hPa | 0 mm | - | 183 W/m² | - |
| 1788270855 | 28.33° C | 72% | 1020.1 hPa | 0 mm | - | 170 W/m² | - |
| 1788270552 | 28.89° C | 71% | 1020.1 hPa | 0 mm | - | 158 W/m² | - |
| 1788270247 | 28.33° C | 72% | 1020.2 hPa | 0 mm | - | 145 W/m² | - |
| 1788269946 | 27.78° C | 73% | 1019.9 hPa | 0 mm | - | 134 W/m² | - |
| 1788269640 | 27.78° C | 73% | 1020 hPa | 0 mm | - | 122 W/m² | - |
| 1788269339 | 27.78° C | 74% | 1020 hPa | 0 mm | - | 113 W/m² | - |
| 1788269034 | 27.22° C | 75% | 1020.1 hPa | 0 mm | - | 102 W/m² | - |
| 1788268733 | 26.67° C | 77% | 1019.9 hPa | 0 mm | - | 92 W/m² | - |
| 1788268432 | 26.67° C | 77% | 1019.9 hPa | 0 mm | - | 82 W/m² | - |
| 1788268128 | 26.67° C | 78% | 1019.9 hPa | 0 mm | - | 73 W/m² | - |
| 1788267822 | 26.11° C | 79% | 1019.8 hPa | 0 mm | - | 65 W/m² | - |
| 1788267520 | 25.56° C | 80% | 1019.7 hPa | 0 mm | - | 57 W/m² | - |
| 1788267220 | 25.56° C | 82% | 1019.8 hPa | 0 mm | - | 50 W/m² | - |
| 1788266915 | 25° C | 83% | 1019.7 hPa | 0 mm | - | 44 W/m² | - |
| 1788266610 | 24.44° C | 84% | 1019.8 hPa | 0 mm | - | 38 W/m² | - |
| 1788266309 | 24.44° C | 84% | 1019.6 hPa | 0 mm | - | 33 W/m² | - |
| 1788266005 | 23.89° C | 85% | 1019.3 hPa | 0 mm | - | 24 W/m² | - |
| 1788265703 | 23.89° C | 85% | 1019.3 hPa | 0 mm | - | 20 W/m² | - |
| 1788265398 | 23.89° C | 85% | 1019.2 hPa | 0 mm | - | 18 W/m² | - |
| 1788265097 | 23.89° C | 85% | 1019.3 hPa | 0 mm | - | 15 W/m² | - |
| 1788264798 | 23.89° C | 84% | 1019.2 hPa | 0 mm | - | 12 W/m² | - |
| 1788264493 | 23.89° C | 84% | 1019.2 hPa | 0 mm | - | 9 W/m² | - |
| 1788264188 | 23.89° C | 84% | 1019 hPa | 0 mm | - | 6 W/m² | - |
| 1788263883 | 23.89° C | 85% | 1018.9 hPa | 0 mm | - | 4 W/m² | - |
* Rain latest hour (hover to see other rain measurements)
** Current wind speed in m/s (hover to see current wind gust speed)